www.pogodaiklimat.ru

Погода и климат >> Архив погоды >> Украина >> Гайсин


ПОГОДА в Гайсине

  • Прогноз погоды в Гайсине
  • Монитор погоды в Гайсине
  • Климат города

АРХИВ ПОГОДЫ в Гайсине

Время (UTC), дата Ветер
(напр.,м/с)
 
Видим.   Явления Облачность Т
(С)
Тd
(С)
f
(%)
Тe
(С)
Тes
(С)
Комфортность P
(гПа)
Po
(гПа)
Тmin
(С)
Tmax
(С)
R
(мм)
R24
(мм)
S
(см)
06 14.02 В 2 11 км 10/10 700 м
[Sc]
-3.8 -5.3 89 -8 -8 1018.6 1019.0 -3.9 3
09 14.02 В 2 10 км в посл. час ливневой снег 10 баллов -3.1 -4.8 88 -7 -7 1020.0 993.1
12 14.02 ЮВ 3 11 км {ливн. осадки} 10/8 500 м
[Cb calv Ac und]
-2.9 -4.5 89 -8 -8 1020.0 1020.0 0.5
15 14.02 СВ 2 10 км 10 баллов -2.6 -4.9 84 -7 -7 1020.0 993.2
18 14.02 СВ 2 12 км в посл. час снег 10/10 660 м
[Sc]
-3.3 -5.4 85 -7 -7 1021.3 1021.0 -2.5 0.5
21 14.02 СВ 2 10 км 10 баллов -3.6 -5.4 87 -8 -8 1022.0 995.0
00 15.02 СВ 3 4000 м слабый ливневой снег 10/8 570 м
[Cb calv Ac und]
-3.4 -4.8 90 -9 -9 1021.2 1021.0 0.2
03 15.02 СВ 2 4000 м слабый снег 10 баллов -3.4 -4.2 94 -8 -8 1021.0 994.0
06 15.02 С 2 3900 м слабый ливневой снег 10/10 400 м
[Cb cap]
-3.2 -3.9 95 -7 -7 1022.6 1023.0 -3.7 2 4
09 15.02 СВ 2 5000 м слабый снег 10 баллов -1.3 -2.3 93 -5 -5 1023.0 996.2
12 15.02 СВ 2 11 км {ливн. осадки, снег} 10/10 720 м
[Sc]
+0.2 -1.8 86 -3 -3 1023.9 1024.0 1.0
15 15.02 СВ 2 10 км 10 баллов +0.5 -1.3 88 -3 -3 1025.0 998.3
18 15.02 СВ 2 8000 м дымка 10/10 700 м
[Sc]
-0.3 -1.5 92 -4 -4 1025.9 1026.0 +0.6 1
21 15.02 С 2 6000 м слабый снег 10 баллов -0.6 -1.4 94 -4 -4 1027.0 1000.2
00 16.02 С 1 6000 м слабый снег 10/10 400 м
[Frnb Ns]
-0.7 -1.7 93 -3 -3 1026.7 1027.0 0.4
03 16.02 СВ 1 7000 м дымка 10 баллов -1.0 -2.0 93 -3 -3 1027.0 1000.1
06 16.02 СВ 1 3400 м дымка {снег} 10/10 300 м
[St]
-1.2 -1.7 96 -4 -4 1027.1 1027.0 -1.4 0.4 7
09 16.02 В 2 1800 м дымка 10 баллов -0.8 -0.9 99 -5 -5 1028.0 1001.1
12 16.02 ЮВ 1 2800 м дымка 10 баллов +0.1 -0.2 98 -2 -2 1027.0 1000.2
15 16.02 ЮВ 2 5000 м дымка 10 баллов +0.4 -0.5 94 -3 -3 1026.0 999.3
18 16.02 ЮВ 1 1700 м дымка {морось} 10/10 300 м
[St]
+0.1 -0.2 98 -2 -2 1026.3 1026.0 +0.6 0.0
21 16.02 штиль 0 700 м туман н/о +0.1 +0.1 100 -1 -1 1026.0 999.3
00 17.02 З 1 4800 м дымка {снег, туман} 10/10 300 м
[St]
+0.2 -0.4 96 -2 -2 1026.2 1026.0 0.3
03 17.02 З 1 5000 м в посл. час снег 10 баллов -0.6 -1.2 96 -3 -3 1026.0 999.2
06 17.02 В 1 6000 м дымка {снег} 6/0
[Ac trans]
-2.1 -3.0 94 -4 -4 1026.1 1026.0 -2.3 0.5 6
09 17.02 З 1 10 км 10 баллов -0.5 -2.5 86 -3 -3 1027.0 1000.2
12 17.02 З 2 20 км 3/0
[Ci fib]
+3.9 -4.9 53 +2 +5 1025.4 1025.0
15 17.02 ЮЗ 2 10 км ясно +2.7 -3.2 65 0 0 1025.0 998.5
18 17.02 З 1 13 км ясно -2.1 83 -3 -3 1025.1 1025.0 +4.0
21 17.02 штиль 0 10 км ясно -5.2 -7.3 85 -6 -6 1026.0 998.7
00 18.02 штиль 0 11 км ясно -5.8 -7.7 86 -7 -7 1025.3 1025.0
03 18.02 штиль 0 10 км ясно -7.3 -8.9 88 -8 -8 1025.0 997.5
06 18.02 штиль 0 10 км 3/0
[Ci fib]
-7.2 -8.5 90 -8 -7 1024.8 1025.0 -7.4 4
09 18.02 З 1 10 км 10 баллов +0.4 -5.2 66 -1 -1 1024.0 997.3
12 18.02 ЮЗ 2 21 км 8/0
[Ci fib]
+3.1 -6.5 49 +1 +4 1023.0 1023.0
15 18.02 ЮЗ 2 10 км 10 баллов +1.8 -3.7 67 -1 -1 1023.0 996.5
18 18.02 ЮЗ 1 10 км 10 баллов +0.1 -3.6 76 -2 -2 1023.0 996.3 +3.2
21 18.02 штиль 0 10 км 10 баллов -0.3 -3.7 78 -1 -1 1024.0 997.3
00 19.02 СЗ 2 13 км 10/10 700 м
[Sc]
-0.9 -3.4 83 -5 -5 1023.9 1024.0
03 19.02 СЗ 2 10 км 10 баллов -2.4 -5.0 82 -6 -6 1024.0 997.1
06 19.02 СЗ 2 13 км {снег} 10/0
[Ac und]
-3.4 -6.2 81 -7 -7 1025.4 1025.0 -3.6 0.0 3
09 19.02 СЗ 4 10 км 6 баллов -2.0 -6.5 71 -8 -6 1026.0 999.0
12 19.02 З 3 17 км {снег} 4/3 600 м
[Sc Ac trans Ci fib]
-0.9 -7.4 61 -5 -3 1026.0 1026.0 0.0
15 19.02 СЗ 2 10 км ясно -1.0 -6.7 65 -4 -4 1026.0 1016.8
18 19.02 штиль 0 13 км ясно -4.4 -7.1 81 -5 -5 1026.3 1026.0 -0.8 0.0
21 19.02 штиль 0 8000 м дымка ясно -8.1 -9.2 92 -9 -9 1027.0 999.4
00 20.02 штиль 0 6000 м дымка ясно -9.9 -10.7 94 -10 -10 1027.1 1027.0
03 20.02 штиль 0 5000 м дымка ясно -11.5 -12.3 94 -12 -12 1027.0 999.0
06 20.02 штиль 0 4300 м дымка 3/0
[Cs]
-11.8 -12.4 95 -12 -11 1027.1 1027.0 -11.9 3
09 20.02 ЮЗ 1 10 км 3 балла -1.4 -7.1 65 -3 +1 1026.0 999.1
12 20.02 В 2 17 км 3/0
[Ci fib]
+0.9 -5.1 64 -2 +2 1025.9 1026.0
15 20.02 В 2 10 км 3 балла -0.4 -5.0 71 -4 -4 1025.0 998.2
18 20.02 В 2 10 км ясно -3.4 -7.4 74 -7 -7 1026.0 998.9 +0.9
21 20.02 В 2 10 км ясно -5.4 -8.0 82 -10 -10 1026.0 998.7
00 21.02 штиль 0 10 км ясно -7.5 -9.1 88 -8 -8 1026.0 998.5

 

Местоположение метеостанции Гайсин (Винницкая область, Украина): широта 48.80 долгота 29.40 высота над уровнем моря 211 м.

В архиве по умолчанию представлена погода в Гайсине за последнюю неделю. Архивные данные за месяц целиком и за предыдущие месяцы, начиная с января 2011 года, Вы можете получить, выбрав интересующий диапазон дат из раскрывающегося списка и нажав кнопку "Ввод!".

Внимание! Время в таблицах - всемирное. Для получения местного времени необходимо прибавить поправку, которая в Гайсине равна 2 ч.

Смотрите также архив погоды в соседних городах и на ближайших метеорологических станциях:

Погода в Гайвороне (Кировоградская область, Украина) (61 км)
Погода в Умани (Черкасская область, Украина) (61 км)
Погода в Жашкове (Черкасская область, Украина) (71 км)
Погода в Виннице (Винницкая область, Украина) (75 км)
Погода в Жмеринке (Винницкая область, Украина) (99 км)
Погода в Каменке (Молдова) (100 км)
Погода в Сороках (Молдова) (105 км)
Погода в Звенигородке (Черкасская область, Украина) (114 км)
Погода в Белой Церкви (Киевская область, Украина) (118 км)
Погода в Рыбнице (Молдова) (118 км)

Пояснения к столбцам:

Ветер - указаны скорость ветра в м/с - средняя за 10 мин, порывы в срок и между сроками (в фигурных скобках) и направление, откуда дует ветер: С - северный, СВ - северо-восточный, В - восточный, ЮВ - юго-восточный, Ю - южный, ЮЗ - юго-западный, З - западный, СЗ - северо-западный.
Видимость - горизонтальная дальность видимости в метрах или километрах. При видимости от 1 до 10 км при отсутствии осадков обычно наблюдается дымка, при ухудшении видимости до 1 км и менее - туман. В сухую погоду видимость может ухудшаться дымом, пылью или мглою.
Явления - указаны атмосферные явления, наблюдавшиеся в срок или в последний час перед сроком; фигурными скобками обозначены явления, наблюдавшиеся между сроками (за 1-3 часа до срока); квадратными скобками обозначены град или гололедные отложения с указанием их диаметра в мм.
Облачность - указаны через наклонную черту общая и нижняя облачность в баллах и высота нижней границы облаков в метрах; квадратными скобками обозначены формы облаков: Ci - перистые, Cs - перисто-слоистые, Cc - перисто-кучевые, Ac - высококучевые, As - высокослоистые, Sc - слоисто-кучевые, Ns - слоисто-дождевые, Cu - кучевые, Cb - кучево-дождевые. Подробнее классификацию облаков см. в Атласе облаков (PDF).
T - Температура воздуха - температура, измеренная на высоте 2 м над землей.
Td - Температура точки росы - температура, при понижении до которой содержащийся в воздухе водяной пар достигнет насыщения.
f - Относительная влажность воздуха - влажноcть воздуха, измеренная на высоте 2 м над землей.
Te - Эффективная температура - температура, которую ощущает одетый по сезону человек в тени. Характеристика душности погоды. При расчете учитывается влияние влажности воздуха и скорости ветра на теплоощущения человека.
Tes - Эффективная температура на солнце - температура, которую ощущает человек, с поправкой на солнечный нагрев. Характеристика знойности погоды. Зависит от высоты солнца над горизонтом, облачности и скорости ветра. Ночью, в пасмурную погоду, а также при ветре 12 м/с и более поправка равна нулю.
P - Атмосферное давление - приведенное к уровню моря атмосферное давление.
Po - Атмосферное давление - измеренное на уровне метеостанции атмосферное давление.
Tmin - Минимальная температура - минимум температуры воздуха на высоте 2 м над землей.
Tmax - Максимальная температура - максимум температуры воздуха на высоте 2 м над землей.
R - Количество осадков - Количество выпавших осадков за период времени, мм. При наведении курсора мыши на число - период времени, за который выпало указанное количество осадков.
R24 - Количество осадков - Количество выпавших осадков за 24 часа, мм.
S - Снежный покров - Высота снежного покрова, см. При наведении курсора мыши на число - состояние снежного покрова и степень покрытия местности в баллах.